Погода в Раздзоге

Россия / Республика Северная Осетия — Алания     43°21′32″N   44°28′14″E
темп.,
°C
ветер,
м/с
пор.,
м/с
влажн.,
%
обл.,
%
осадки,
мм/ч
давл.,
гПа
погр.,
м
19 сентября, вс
вс1900:00+12в24955 0.0 101683
03:00+12всв119510 0.0 101612
06:00+11в119513 0.0 101611
09:00+18св116898 0.0 1014456
12:00+23св3249100 0.0 10131119
15:00+24в3345100 0.0 10121410
18:00+20в3358100 0.0 101236
21:00+17всв3666100 0.0 1013163
20 сентября, пн
пн2000:00+14юв117754 0.0 101311
03:00+14зсз11834 0.0 101410
06:00+13ю11841 0.0 101410
09:00+20сз225652 0.0 1014415
12:00+25с224242 0.0 10131462
15:00+26ссв4339100 0.0 10121852
18:00+18в3468100 0.9 101462
21:00+16ююв00769 2.1 101611
21 сентября, вт
вт2100:00+16зсз018184 0.1 101611
03:00+17юв007892 0.1 101611
06:00+15юв11865 0.0 101611
09:00+21в24599 0.0 1014557
12:00+26всв54377 0.0 10111333
15:00+27в5534100 0.0 10091565
18:00+21в3550100 0.0 100963
21:00+18юз116291 0.0 101111
22 сентября, ср
ср2200:00+15з3483100 0.0 101395
03:00+14з239399 0.0 1014175
06:00+15с0187100 0.1 1015243
09:00+15сз1293100 1.9 1015170
12:00+15св2391100 3.0 1014345
15:00+14с2390100 5.3 1014354
18:00+13с2393100 1.0 1015346
21:00+12с2293100 1.4 1015236
23 сентября, чт
чт2300:00+12ссв1293100 0.3 1015246
03:00+11ссв2292100 0.5 1014296
06:00+11ссв1292100 0.1 1013288
09:00+11с1192100 1.5 1013285
12:00+12всв238887 2.4 1010443
15:00+14св3384100 2.8 1009603
18:00+12в3591100 0.0 1008333
21:00+12зсз2295100 0.9 1008131